Miscellaneous Local Product
Issued by NWS Hastings, NE

Home | Current Version | Previous Version | Graphics & Text | Print | Product List | Glossary On
Versions: 1 2 3 4 5 6 7 8 9 10 11 12 13 14 15 16 17 18 19 20 21 22 23 24 25 26 27 28 29 30 31 32 33 34 35 36 37 38 39 40 41 42 43 44 45 46 47 48 49 50
502
AXUS43 KGID 220302
MISGRI

GID CWA HOURLY WEATHER ROUNDUP
NATIONAL WEATHER SERVICE HASTINGS NE
900 PM CST TUE NOV 21 2017

NOTE: "FAIR" INDICATES FEW OR NO CLOUDS BELOW 12,000 FEET WITH NO
SIGNIFICANT WEATHER AND/OR OBSTRUCTIONS TO VISIBILITY.

...SOUTH CENTRAL NEBRASKA...

CITY           SKY/WX    TMP DP  RH WIND       PRES   REMARKS
GRAND ISLAND   CLOUDY    20  13  74 N3        30.39S
KEARNEY        CLOUDY    22  10  60 NE3       30.38F
HASTINGS       CLEAR     18   9  68 CALM      30.38S
ORD            CLEAR     14   9  80 CALM      30.37S
YORK           PTCLDY    19  14  79 N6        30.41R WCI  11
AURORA         CLOUDY    18  11  75 N6        30.39S WCI  10
LEXINGTON      CLOUDY    22  14  70 CALM      30.36R
HOLDREGE       CLOUDY    23  10  59 CALM      30.36S
HEBRON         PTCLDY    26  13  60 N5        30.41R WCI  20

...NEBRASKA PANHANDLE...

CITY           SKY/WX    TMP DP  RH WIND       PRES   REMARKS
CHADRON        CLOUDY    26  23  88 CALM      30.25R
ALLIANCE       CLOUDY    26  23  88 SE6       30.26R WCI  19
SCOTTSBLUFF    CLOUDY    29  22  75 E7        30.24F WCI  22
SIDNEY         CLOUDY    23  18  81 SW8       30.27F WCI  14

...WESTERN AND NORTH CENTRAL NEBRASKA...

CITY           SKY/WX    TMP DP  RH WIND       PRES   REMARKS
VALENTINE      CLEAR     16  11  80 SW6       30.30F WCI   7
AINSWORTH      CLOUDY    14  10  83 CALM      30.31F
ONEILL         CLOUDY    14  10  84 W3        30.38S
BROKEN BOW     CLEAR     17   8  67 NW5       30.34S WCI  10
IMPERIAL       CLEAR     27  21  78 S5        30.31F WCI  22
NORTH PLATTE   CLOUDY    22  14  71 E3        30.33S
MCCOOK         CLOUDY    30  17  58 S5        30.36R WCI  25

...EASTERN NEBRASKA...

CITY           SKY/WX    TMP DP  RH WIND       PRES   REMARKS
NORFOLK        CLOUDY    18  12  77 W6        30.37S WCI  10
SO SIOUX CITY  CLOUDY    22   9  57 N10       30.39F WCI  11
TEKAMAH        CLOUDY    21   9  59 N10       30.39F WCI  10
COLUMBUS       CLOUDY    19  12  74 W7        30.41F WCI  10
ALBION         CLOUDY    15   9  77 CALM      30.38R
OMAHA EPPLEY   CLOUDY    24  11  57 N8        30.41R WCI  15
OFFUTT AFB     CLOUDY    25  10  51 N12       30.40R WCI  14
MILLARD        CLOUDY    27  12  54 N8        30.40F WCI  19
LINCOLN        CLOUDY    18  11  74 NW6       30.41F WCI  10
NEBRASKA CITY  CLOUDY    26  14  61 N9        30.40R WCI  16
BEATRICE       CLOUDY    21  13  70 CALM      30.40F
FALLS CITY     CLOUDY    26  13  57 NW10      30.40R WCI  16

...NORTHERN KANSAS...

CITY           SKY/WX    TMP DP  RH WIND       PRES   REMARKS
GOODLAND       CLEAR     29  22  75 S6        30.33F WCI  23
HILL CITY      CLOUDY    28  15  58 CALM      30.39R
NORTON         CLEAR     28  10  47 CALM      30.36S
PHILLIPSBURG   CLEAR     28  10  47 E3        30.40S
SMITH CENTER   CLEAR     21   9  58 NE5       30.41R WCI  15
RUSSELL        CLOUDY    26  12  55 NE5       30.38S WCI  20
CONCORDIA      CLOUDY    24  12  60 NE7       30.40F WCI  16
SALINA         CLOUDY    32  13  45 NE10      30.41F WCI  24
TOPEKA         CLOUDY    28  16  60 NW9       30.41R WCI  19



USA.gov is the U.S. government's official web portal to all federal, state and local government web resources and services.